Portada
METAR-TAF:

METAR-TAF

Aeroports :

Hagi, Japó

latitud: 34-40N, longitud: 131-48E, altitud: 54 m

Observació

L'informe es va fer fa 5 hores i 1 minuts, a les 10:00 UTC
Vent 3 kt del Est/Sud-Est, variant entre Est i Sud/Sud-Est
Temperatura 10°C
Humitat 93%
Pressió 1024 hPa
Visibilitat 10 km o més
Escasses núvols a una alçada de 5000 ft

METAR: RJOW 241000Z 12003KT 080V160 9999 FEW050 10/09 Q1024

Hora: 00:01 (15:01 UTC)


TAF: manca

Observacions i pronòstics meteorològics de més de 4000 aeroports (METAR i TAF).

Les estacions disponibles són els punts grocs i vermells al mapa.

Posi el ratolí al punt desitjat per veure el nom de l'estació.

Feu clic per veure les observacions i els pronòstics meteorològics.

Per canviar el mapa: feu clic els botons verds amb una creu de color negre per apropar; al botó verd amb un guió per allunyar la imatge; o en les fletxes verdes per a mapes adjacents.


METAR-TAF: